[[{"header":{"parameterUnit":"m.s-1","parameterCategory":1,"la1":30.2991,"la2":30.254,"lo1":-89.0895,"lo2":-89.0444,"dy":0.0017,"dx":0.0017,"nx":28,"ny":28,"refTime":"2024-05-09T21:00:00:Z","depth":0,"parameterNumber":2,"parameterNumberName":"U-component_of_WINDS"},"data":[0,0,0,0,0,0,0,0,0,0,0,0,0,0,0,0,0,0,0,0,0,0,0,0,0,0,0,0,0,0,0,0,0,0,0,0,0,0,0,0,0,0,0,0,0,0,0,0,0,0,0,0,0,0,0,0,0,0,1.031,1.0312,0,1.0449,1.045,1.0452,1.0505,1.0504,1.0504,1.0504,1.0648,1.0653,1.0657,0,0,0,0,0,0,0,0,0,0,0,0,0,1.0094,1.0098,1.031,1.0312,1.0313,1.0448,1.045,1.0452,1.0505,1.0504,1.0504,1.0503,1.0647,1.0652,1.0657,0,0,0,0,0,0,0,0,0,0,0,0,0,1.0206,1.0099,1.031,1.0356,1.0361,1.0448,1.045,1.0453,1.0505,1.0504,1.0504,1.0503,1.0645,1.0652,1.0658,1.071,0,0,1.0677,1.068,0,0,0,0,0,0,0,0,1.02,1.0214,1.0347,1.0353,1.0359,1.0459,1.0428,1.0539,1.0505,1.0451,1.0504,1.0503,1.0586,1.0597,1.0625,1.0716,1.0723,1.0678,1.0682,1.0684,1.0686,0,0,0,0,0,0,0,1.0192,1.0208,1.0365,1.0349,1.0356,1.0371,1.0386,1.0449,1.052,1.0455,1.0459,1.0475,1.0589,1.0618,1.0628,1.0725,1.0678,1.0683,1.0687,1.069,1.0868,1.0869,0,0,0,0,0,0,1.0176,1.0201,1.0361,1.0369,1.0276,1.0375,1.0392,1.0427,1.052,1.0533,1.0475,1.0477,1.0608,1.0621,1.0634,1.0702,1.0684,1.069,1.0694,1.0867,1.0868,1.0869,0,0,0,0,0,0,1.0171,1.019,1.0355,1.0287,1.0309,1.038,1.0419,1.0431,1.046,1.0535,1.0548,1.0492,1.0608,1.0625,1.0691,1.0707,1.0693,1.0699,1.0866,1.0867,1.0868,1.0836,0,0,0,0,0,0,1.0165,1.0188,1.0207,1.0286,1.0312,1.0408,1.042,1.0434,1.047,1.0474,1.0554,1.0567,1.0609,1.0681,1.0697,1.0716,1.0704,1.0865,1.0866,1.0868,1.0836,1.0836,1.0837,0,0,0,0,0,1.0157,1.0193,1.0208,1.0227,1.0338,1.0409,1.0424,1.0471,1.0471,1.0492,1.0541,1.0564,1.0703,1.0687,1.0706,1.0727,1.0864,1.0866,1.0868,1.0836,1.0836,1.0837,0,0,0,0,0,0,1.0114,1.0204,1.0222,1.0284,1.0338,1.0418,1.0445,1.0469,1.0525,1.0526,1.0583,1.0601,1.0662,1.0701,1.0682,1.0782,1.0785,1.0791,1.0755,1.0755,1.0756,1.0745,1.0709,0,0,0,0,0,1.0112,1.0161,1.0237,1.0285,1.0312,1.0373,1.0406,1.0438,1.0497,1.052,1.0574,1.0631,1.0688,1.0724,1.078,1.0842,1.0861,1.0866,1.0866,1.0866,1.087,1.0908,1.0911,1.0876,1.0876,1.0876,0,0,1.0108,1.0163,1.0191,1.0278,1.0324,1.0375,1.0393,1.0445,1.0484,1.0529,1.0594,1.0635,1.0703,1.0767,1.0799,1.0802,1.0885,1.0869,1.0868,1.0873,1.091,1.0914,1.0916,1.0877,1.0877,1.0877,0,0,1.0126,1.0173,1.0218,1.0264,1.0333,1.0374,1.0385,1.0461,1.049,1.0556,1.0591,1.0638,1.0734,1.0782,1.0818,1.0856,1.088,1.0873,1.0874,1.091,1.0913,1.0915,1.093,1.0934,1.0877,1.0877,1.0877,0,1.0113,1.019,1.0239,1.029,1.0328,1.037,1.0417,1.046,1.0544,1.057,1.0572,1.0694,1.0743,1.0819,1.0829,1.0857,1.0872,1.0864,1.0908,1.0911,1.0915,1.0929,1.0934,1.0876,1.0876,1.0876,1.0876,0,1.0171,1.0224,1.0253,1.0332,1.0373,1.0422,1.048,1.0516,1.0544,1.0585,1.0653,1.0713,1.0783,1.0803,1.0832,1.0885,1.0885,1.0897,1.0901,1.0916,1.0931,1.0937,1.0874,1.0875,1.0875,1.0875,0,0,1.0166,1.0272,1.0282,1.0319,1.0399,1.0441,1.0493,1.0561,1.0591,1.0648,1.0694,1.0774,1.0787,1.0828,1.0862,1.0893,1.0921,1.0902,1.0905,1.0904,1.0985,1.0975,1.0981,1.0937,1.0939,1.094,1.0979,0,1.0196,1.0289,1.0335,1.0408,1.0459,1.05,1.0545,1.06,1.064,1.069,1.0735,1.0792,1.0803,1.0828,1.0861,1.091,1.0938,1.0908,1.0982,1.0984,1.0963,1.0988,1.0978,1.1013,1.0985,1.0986,1.0987,0,1.0243,1.0299,1.0377,1.0452,1.0475,1.0515,1.0581,1.0628,1.0691,1.0718,1.0765,1.0798,1.0856,1.0855,1.0936,1.0915,1.0948,1.0977,1.098,1.0988,1.0986,1.0998,1.1025,1.103,1.0996,1.0995,1.0995,0,1.0232,1.0328,1.0387,1.0418,1.0506,1.0533,1.0572,1.0635,1.0673,1.0731,1.0756,1.0821,1.0856,1.0906,1.0956,1.0951,1.1033,1.1036,1.1058,1.1057,1.1074,1.1072,1.1106,1.1094,1.1094,1.1094,1.1093,0,1.0261,1.0308,1.0384,1.042,1.0474,1.0527,1.058,1.0622,1.0677,1.0724,1.0764,1.0807,1.0871,1.0922,1.0962,1.1024,1.1039,1.1064,1.1074,1.1061,1.1058,1.1083,1.1082,1.1095,1.1095,1.1094,1.1094,0,1.0258,1.0311,1.0379,1.0457,1.0478,1.0515,1.0583,1.0621,1.0663,1.0722,1.0738,1.0806,1.0869,1.0924,1.1007,1.1034,1.1098,1.111,1.1076,1.1081,1.11,1.1098,1.1152,1.1163,1.1143,1.1143,1.1143,0,1.0273,1.031,1.0393,1.0426,1.0464,1.0517,1.0556,1.061,1.065,1.0725,1.0754,1.082,1.0875,1.0974,1.1031,1.1096,1.111,1.1125,1.112,1.1106,1.1111,1.1109,1.1113,1.1125,1.1125,1.1125,1.1125,0,1.0295,1.0319,1.0373,1.0437,1.0482,1.0535,1.0589,1.0615,1.0679,1.0721,1.0786,1.0829,1.0914,1.0979,1.105,1.1091,1.1119,1.1126,1.1134,1.1121,1.11,1.1112,1.1076,1.1124,1.1124,1.1124,1.1124,1.1124,1.0302,1.0337,1.04,1.046,1.0506,1.0556,1.0596,1.0643,1.0698,1.0771,1.08,1.0866,1.093,1.1028,1.1069,1.1122,1.1127,1.1139,1.1143,1.1145,1.1143,1.1091,1.1135,1.1135,1.1136,1.1136,1.1136,0,1.0326,1.0369,1.0423,1.0497,1.0544,1.0566,1.0627,1.0665,1.0723,1.078,1.0833,1.0908,1.0972,1.1034,1.1101,1.1132,1.1147,1.1148,1.1147,1.1156,1.1134,1.112,1.1135,1.1135,1.1135,1.1135,1.1135,1.1135,1.0344,1.0404,1.0436,1.0521,1.0565,1.0629,1.0662,1.0709,1.0755,1.0836,1.0889,1.0929,1.0989,1.1061,1.1121,1.1138,1.1161,1.1159,1.1179,1.1158,1.1157,1.1157,1.1144,1.1163,1.1163,1.1196,1.1197,1.1197]},{"header":{"parameterUnit":"m.s-1","parameterCategory":1,"la1":30.2991,"la2":30.254,"lo1":-89.0895,"lo2":-89.0444,"dy":0.0017,"dx":0.0017,"nx":28,"ny":28,"refTime":"2024-05-09T21:00:00:Z","depth":0,"parameterNumber":3,"parameterNumberName":"V-component_of_WINDS"},"data":[0,0,0,0,0,0,0,0,0,0,0,0,0,0,0,0,0,0,0,0,0,0,0,0,0,0,0,0,0,0,0,0,0,0,0,0,0,0,0,0,0,0,0,0,0,0,0,0,0,0,0,0,0,0,0,0,0,0,-2.7312,-2.7311,0,-2.7187,-2.7185,-2.7184,-2.7198,-2.72,-2.7202,-2.7204,-2.7062,-2.7057,-2.7051,0,0,0,0,0,0,0,0,0,0,0,0,0,-2.7552,-2.7548,-2.7312,-2.7311,-2.7309,-2.7187,-2.7185,-2.7183,-2.7198,-2.72,-2.7203,-2.7205,-2.7064,-2.7057,-2.705,0,0,0,0,0,0,0,0,0,0,0,0,0,-2.7439,-2.7547,-2.7312,-2.7302,-2.73,-2.7187,-2.7185,-2.7183,-2.7197,-2.72,-2.7203,-2.7206,-2.7066,-2.7058,-2.705,-2.6935,0,0,-2.7023,-2.702,0,0,0,0,0,0,0,0,-2.7446,-2.743,-2.7305,-2.7302,-2.73,-2.7212,-2.7218,-2.7099,-2.7197,-2.7236,-2.7204,-2.7208,-2.7108,-2.7097,-2.7066,-2.6929,-2.6923,-2.7023,-2.7017,-2.7014,-2.7011,0,0,0,0,0,0,0,-2.7454,-2.7436,-2.7262,-2.7303,-2.73,-2.7299,-2.7287,-2.7195,-2.7156,-2.7233,-2.7233,-2.7219,-2.7107,-2.7074,-2.7063,-2.692,-2.7023,-2.7015,-2.701,-2.7007,-2.6682,-2.6678,0,0,0,0,0,0,-2.7466,-2.7442,-2.7266,-2.7258,-2.7382,-2.7293,-2.7279,-2.7236,-2.7157,-2.7148,-2.7217,-2.722,-2.7087,-2.7073,-2.7058,-2.6917,-2.7014,-2.7006,-2.7001,-2.6685,-2.6681,-2.6677,0,0,0,0,0,0,-2.7471,-2.745,-2.7271,-2.7351,-2.7328,-2.7285,-2.7238,-2.7232,-2.7199,-2.7145,-2.7137,-2.719,-2.7089,-2.707,-2.6966,-2.6912,-2.7002,-2.6994,-2.6689,-2.6684,-2.6679,-2.6636,0,0,0,0,0,0,-2.7478,-2.7452,-2.741,-2.735,-2.7324,-2.7185,-2.7235,-2.7228,-2.7186,-2.719,-2.7118,-2.7109,-2.709,-2.6979,-2.6958,-2.6902,-2.6988,-2.6694,-2.6687,-2.6681,-2.6642,-2.663,-2.662,0,0,0,0,0,-2.7486,-2.7401,-2.7408,-2.7387,-2.7272,-2.7182,-2.7167,-2.715,-2.7182,-2.7138,-2.7103,-2.7112,-2.6923,-2.6968,-2.6944,-2.6885,-2.6697,-2.6689,-2.6681,-2.6647,-2.6632,-2.662,0,0,0,0,0,0,-2.745,-2.7392,-2.74,-2.7293,-2.7243,-2.7185,-2.7129,-2.7135,-2.7071,-2.7076,-2.7055,-2.7038,-2.6933,-2.69,-2.6951,-2.677,-2.6814,-2.6801,-2.6796,-2.6781,-2.677,-2.6778,-2.698,0,0,0,0,0,-2.7432,-2.7368,-2.7319,-2.7228,-2.7204,-2.7171,-2.7131,-2.7123,-2.7068,-2.7046,-2.7003,-2.6946,-2.6874,-2.6826,-2.6757,-2.6639,-2.6621,-2.6586,-2.6575,-2.6567,-2.6554,-2.6486,-2.6469,-2.6651,-2.6651,-2.6651,0,0,-2.7388,-2.7349,-2.7309,-2.722,-2.7181,-2.7111,-2.7152,-2.7077,-2.7023,-2.7032,-2.6933,-2.69,-2.6835,-2.6723,-2.6672,-2.6692,-2.6501,-2.6556,-2.655,-2.6542,-2.6477,-2.6459,-2.6444,-2.6646,-2.6647,-2.6647,0,0,-2.7274,-2.724,-2.7161,-2.7121,-2.7063,-2.7042,-2.7023,-2.6965,-2.6944,-2.6846,-2.6851,-2.6786,-2.6662,-2.6615,-2.6575,-2.6447,-2.6451,-2.6425,-2.6364,-2.6299,-2.6285,-2.6272,-2.6223,-2.6206,-2.6413,-2.6413,-2.6413,0,-2.7227,-2.7126,-2.7118,-2.7042,-2.7002,-2.7013,-2.693,-2.6891,-2.681,-2.678,-2.6806,-2.6652,-2.6609,-2.6485,-2.6455,-2.6423,-2.6397,-2.643,-2.6289,-2.6275,-2.6263,-2.6216,-2.6198,-2.641,-2.6411,-2.6411,-2.6411,0,-2.7069,-2.7,-2.6942,-2.687,-2.6823,-2.6744,-2.672,-2.6673,-2.667,-2.6646,-2.6544,-2.6494,-2.6414,-2.6385,-2.6379,-2.626,-2.6274,-2.6294,-2.6336,-2.6243,-2.6198,-2.618,-2.6406,-2.6407,-2.6408,-2.6409,0,0,-2.6924,-2.6852,-2.683,-2.6797,-2.6735,-2.6678,-2.6599,-2.6526,-2.6485,-2.643,-2.636,-2.6257,-2.6276,-2.6231,-2.6221,-2.6164,-2.6062,-2.6191,-2.6189,-2.6165,-2.5924,-2.5906,-2.5886,-2.6067,-2.6063,-2.6061,-2.5928,0,-2.6801,-2.6666,-2.6657,-2.6533,-2.6466,-2.6478,-2.6408,-2.636,-2.6336,-2.6273,-2.6245,-2.6171,-2.6204,-2.6176,-2.6121,-2.6086,-2.6012,-2.6096,-2.5996,-2.5993,-2.6008,-2.5863,-2.5843,-2.5721,-2.5911,-2.5908,-2.5906,0,-2.6639,-2.6584,-2.6454,-2.6402,-2.6374,-2.6312,-2.6244,-2.6186,-2.6131,-2.6117,-2.6068,-2.6066,-2.5981,-2.6031,-2.5911,-2.5968,-2.5927,-2.5904,-2.5899,-2.5885,-2.594,-2.5841,-2.5681,-2.5661,-2.5879,-2.5881,-2.5883,0,-2.6542,-2.6435,-2.6344,-2.6316,-2.6253,-2.6209,-2.618,-2.6129,-2.6086,-2.6026,-2.5997,-2.5926,-2.5886,-2.583,-2.5807,-2.5847,-2.5687,-2.5736,-2.5669,-2.567,-2.5631,-2.5633,-2.5458,-2.5612,-2.5612,-2.5613,-2.5613,0,-2.6402,-2.6321,-2.63,-2.6242,-2.6152,-2.6142,-2.6051,-2.6024,-2.5979,-2.5913,-2.5919,-2.5857,-2.5834,-2.5767,-2.5749,-2.5651,-2.5633,-2.5616,-2.5611,-2.5613,-2.5615,-2.5582,-2.5588,-2.5608,-2.5609,-2.561,-2.5611,0,-2.6276,-2.6259,-2.616,-2.6111,-2.6097,-2.6031,-2.5987,-2.593,-2.591,-2.5827,-2.5807,-2.5772,-2.5694,-2.5668,-2.5572,-2.556,-2.5444,-2.5449,-2.5464,-2.5462,-2.5395,-2.54,-2.519,-2.5161,-2.5338,-2.5336,-2.5335,0,-2.6186,-2.6125,-2.6071,-2.6031,-2.6002,-2.5936,-2.5893,-2.5881,-2.5836,-2.577,-2.572,-2.5645,-2.5582,-2.5457,-2.5419,-2.5346,-2.5346,-2.5278,-2.5334,-2.5338,-2.534,-2.5342,-2.5334,-2.5265,-2.5263,-2.5262,-2.5261,0,-2.6027,-2.6023,-2.5964,-2.5901,-2.5852,-2.5801,-2.5751,-2.5717,-2.5697,-2.5645,-2.5569,-2.5521,-2.5426,-2.5349,-2.5275,-2.524,-2.5245,-2.5245,-2.5224,-2.5223,-2.5232,-2.5223,-2.543,-2.5248,-2.5249,-2.525,-2.5251,-2.5251,-2.5913,-2.5859,-2.5814,-2.5747,-2.5711,-2.5665,-2.561,-2.5584,-2.5521,-2.5446,-2.5442,-2.5358,-2.5304,-2.5206,-2.5168,-2.5099,-2.5118,-2.5089,-2.5081,-2.5073,-2.5067,-2.5249,-2.5086,-2.5086,-2.5087,-2.5087,-2.5087,0,-2.5751,-2.5724,-2.5664,-2.5597,-2.5544,-2.5562,-2.5508,-2.5461,-2.5389,-2.5341,-2.5282,-2.5192,-2.5118,-2.5077,-2.5003,-2.4955,-2.4955,-2.4935,-2.4936,-2.4927,-2.5056,-2.5079,-2.4936,-2.4936,-2.4936,-2.4936,-2.4936,-2.4936,-2.5661,-2.557,-2.556,-2.545,-2.5422,-2.5343,-2.5311,-2.5267,-2.5229,-2.5131,-2.5071,-2.5048,-2.5001,-2.4924,-2.4856,-2.4845,-2.4815,-2.4793,-2.4783,-2.4903,-2.4918,-2.4933,-2.4954,-2.4787,-2.4787,-2.466,-2.4659,-2.4658]}]]